STARLINK-5759, 55592

Orbit data source: Space-Track

STARLINK-5759, 55592 is a payload satellite owned by SpaceX/Seattle (US) in LEO that was launched on Sun, 12 Feb 2023 UTC via an FALCON 9 launch vehicle from the Air Force Eastern Test Range (AFETR). Payload-class satellites include a variety of spacecraft equipped with specific instruments for various scientific and technological missions. These include communications satellites like Starlink; space stations such as the ISS; scientific satellites like the Hubble; Earth observation satellites from companies like Planet Labs, Umbra, and HawkEye 360; GPS; miniature CubeSats for education and research; and military/defense satellites.

Loading next visibility...
Identifier
55592, 2023-020Z
Orbit
LEO
Country
Flag of USUS
Related business
Manufacturer
SpaceX/Seattle
Mission
Operational Commercial Communications
Bus & Motor
STARLINK, Unknown motor
Mass
305 kg wet, ~290 kg dry
Launch date (UTC)
2023-02-12 (3 years ago)
Launch vehicle
FALCON 9
Launch site
Air Force Eastern Test Range (AFETR)
Object type
Payload
Rocket body
Debris
Shape & HBR
Box + 1 Pan, 10.1 m
Radar Cross Section
13.562 m², Large (>1 m²)

Expand to show TLE details & history
Last TLE update: 10 hours ago

TLE from 10 hours ago
0 STARLINK-5759
1 55592U 23020Z   26061.91158690 -.00002849  00000-0 -19588-3 0  9996
2 55592  43.0049  41.1289 0001196 274.0253  86.0452 15.02537930167906
Epoch: 2026-03-02T21:52Z
TLE epoch observation values (Epoch: 2026-03-02T21:52:41.108Z)
Latitude
-0.00005°
Longitude
-87.74064°
Altitude
558.795 km
Speed
7.584 km/s
True Right ascension
02h 44m 30s
True Declination
0° 00' 00"
Sunlit
Object was in daylight at epoch
Visualization orbit readout
Latitude
Unknown
Longitude
Unknown
Altitude
Unknown
Speed
Unknown
Apparent Right ascension
Unknown
Apparent Declination
Unknown
Sunlit
N/A
Visualization observer readout
Local Sidereal Time
11:20:41
Azimuth
Unknown
Elevation
Unknown
Doppler factor
Unknown
Orbital elements
Apogee altitude
561.827 km
Perigee altitude
560.167 km
Semi-major axis
6,939.134 km
Eccentricity
0.00012
Inclination
43.0049°
RAAN
41.1289°
Arg. of periapsis
274.0253°
True anomaly
86.05887°
Mean anomaly
86.0452°
Eccentric anomaly
86.05204°
Mean motion
3.75479 °/min
Orbital period
95.88 mins
BSTAR
-0.00019588
Loading maneuver chart data...
Computing Atmospheric mass density...
Loading historical data...
Loading historical data...
Loading historical data...
Loading historical data...
Loading historical data...
Loading historical data...
Loading historical data...

Documentation

Showing up to 5 results
|